Baker, MT

8:43 AM MDT on August 17, 2017 (GMT -0600)
Baker Municipal

Weather History for KBHK - April, 2014

Change the Weather History Date:

Sunday, April 27, 2014

  Actual Average Record
Temperature  
Mean Temperature 40 °F -  
Max Temperature 44 °F 62 °F 93 °F (2001)
Min Temperature 36 °F 29 °F 21 °F (2008)
Degree Days  
Heating Degree Days 25    
Moisture  
Dew Point 35 °F    
Average Humidity 90    
Maximum Humidity 97    
Minimum Humidity 63    
Precipitation  
Precipitation 0.55 in - - ()
Sea Level Pressure  
Sea Level Pressure 29.55 in    
Wind  
Wind Speed 13 mph (NE)    
Max Wind Speed 25 mph    
Max Gust Speed 34 mph    
Visibility 7 miles    
Events Rain , Snow    
Averages and records for this station are not official NWS values.
T = Trace of Precipitation, MM = Missing Value Source: NWS Daily Summary

Daily Weather History Graph

Daily Weather History Graph

Search for Another Location

Airport or City:

Trip Planner

Search our weather history database for the weather conditions in past years. The results will help you decide how hot, cold, wet, or windy it might be!

Date:

Astronomy

Apr. 27, 2014 Rise Set
Actual Time 5:49 AM MDT 8:00 PM MDT
Civil Twilight 5:16 AM MDT 8:33 PM MDT
Nautical Twilight 4:35 AM MDT 9:14 PM MDT
Astronomical Twilight 3:50 AM MDT 10:00 PM MDT
Moon 4:58 AM MDT (4/27) 6:32 PM MDT (4/27)
Length of Visible Light 15h 17m
Length of Day
14h 11m
Waning Crescent, 3% of the Moon is Illuminated
Apr 27
Waning Crescent
Apr 29
New
May 6
First Quarter
May 14
Full
May 21
Last Quarter

Hourly Weather History & Observations

Time (MDT) Temp. Windchill Dew Point Humidity Pressure Visibility Wind Dir Wind Speed Gust Speed Precip Events Conditions
12:51 AM 44.1 °F 34.8 °F 32.0 °F 63% 29.49 in 10.0 mi ESE 25.3 mph 34.5 mph N/A   Overcast
2:51 AM 42.1 °F 34.5 °F 32.0 °F 67% 29.47 in 10.0 mi ESE 15.0 mph - N/A   Scattered Clouds
3:51 AM 42.1 °F 34.2 °F 32.0 °F 67% 29.46 in 10.0 mi East 16.1 mph - N/A   Mostly Cloudy
5:14 AM 41.0 °F 32.5 °F 33.1 °F 73% 29.50 in 10.0 mi ESE 17.3 mph 23.0 mph 0.00 in   Overcast
5:24 AM 39.9 °F 32.1 °F 34.0 °F 79% 29.50 in 10.0 mi ESE 13.8 mph - 0.00 in Rain Light Rain
5:51 AM 39.9 °F 32.9 °F 36.0 °F 86% 29.49 in 6.0 mi East 11.5 mph - 0.02 in Rain Light Rain
6:51 AM 39.0 °F 31.4 °F 36.0 °F 89% 29.51 in 6.0 mi ESE 12.7 mph - 0.12 in Rain Light Rain
7:02 AM 39.0 °F 31.8 °F 36.0 °F 89% 29.53 in 6.0 mi ESE 11.5 mph - 0.02 in Rain Rain
7:11 AM 37.9 °F 29.6 °F 36.0 °F 93% 29.54 in 2.5 mi ESE 13.8 mph - 0.05 in Rain Heavy Rain
7:18 AM 37.9 °F 29.6 °F 36.0 °F 93% 29.53 in 3.0 mi ESE 13.8 mph - 0.06 in Rain Light Rain
7:29 AM 37.9 °F 29.6 °F 36.0 °F 93% 29.53 in 6.0 mi ESE 13.8 mph - 0.06 in Rain Light Rain
7:34 AM 37.9 °F 30.0 °F 36.0 °F 93% 29.53 in 7.0 mi ESE 12.7 mph - 0.06 in Rain Light Rain
7:51 AM 39.0 °F 32.3 °F 37.0 °F 93% 29.53 in 8.0 mi ESE 10.4 mph - 0.06 in   Overcast
7:58 AM 39.0 °F 32.3 °F 37.0 °F 93% 29.54 in 7.0 mi ESE 10.4 mph - N/A   Overcast
8:06 AM 39.0 °F 32.3 °F 37.0 °F 93% 29.54 in 8.0 mi ESE 10.4 mph - N/A   Overcast
8:26 AM 39.0 °F 33.4 °F 37.0 °F 93% 29.53 in 6.0 mi ESE 8.1 mph - 0.01 in Rain Light Rain
8:32 AM 39.0 °F 33.4 °F 37.0 °F 93% 29.53 in 6.0 mi ESE 8.1 mph - 0.01 in   Overcast
8:51 AM 39.0 °F 32.3 °F 37.0 °F 93% 29.53 in 10.0 mi ESE 10.4 mph - 0.01 in   Overcast
8:58 AM 39.0 °F 31.8 °F 37.0 °F 93% 29.53 in 10.0 mi ESE 11.5 mph - N/A   Overcast
9:51 AM 39.0 °F 33.4 °F 37.9 °F 96% 29.53 in 4.0 mi ESE 8.1 mph - 0.00 in Rain Light Rain
10:51 AM 39.9 °F - 37.0 °F 89% 29.54 in 3.0 mi Calm Calm - 0.05 in Rain Light Rain
10:57 AM 39.0 °F - 37.0 °F 93% 29.52 in 2.5 mi Calm Calm - 0.02 in Rain Rain
11:09 AM 39.0 °F 35.7 °F 36.0 °F 89% 29.52 in 3.0 mi North 4.6 mph - 0.06 in Rain Light Rain
11:14 AM 37.9 °F 35.5 °F 36.0 °F 93% 29.52 in 2.5 mi NW 3.5 mph - 0.08 in Rain Heavy Rain
11:24 AM 37.9 °F - 36.0 °F 93% 29.53 in 4.0 mi Calm Calm - 0.09 in Rain Light Rain
11:30 AM 37.9 °F 35.5 °F 36.0 °F 93% 29.53 in 4.0 mi NE 3.5 mph - 0.10 in Rain Light Rain
11:51 AM 37.9 °F - 35.1 °F 89% 29.57 in 5.0 mi Calm Calm - 0.14 in Rain Light Rain
12:51 PM 37.0 °F 29.8 °F 35.1 °F 93% 29.59 in 2.5 mi NW 10.4 mph - 0.01 in   Overcast
12:59 PM 37.0 °F 30.4 °F 35.1 °F 93% 29.56 in 3.0 mi NW 9.2 mph - 0.00 in   Overcast
1:09 PM 37.0 °F 29.3 °F 35.1 °F 93% 29.56 in 2.5 mi NW 11.5 mph - 0.01 in   Overcast
1:32 PM 36.0 °F 27.5 °F 34.0 °F 93% 29.55 in 3.0 mi NW 12.7 mph - 0.02 in Rain Light Rain
1:46 PM 36.0 °F 27.1 °F 34.0 °F 93% 29.54 in 2.5 mi NW 13.8 mph - 0.03 in Snow Light Snow
1:51 PM 36.0 °F 27.5 °F 34.0 °F 93% 29.58 in 2.5 mi NW 12.7 mph - 0.03 in Snow Light Snow
2:51 PM 37.0 °F 28.9 °F 35.1 °F 93% 29.58 in 10.0 mi NW 12.7 mph - 0.03 in Rain Light Rain
3:51 PM 36.0 °F 27.5 °F 34.0 °F 93% 29.61 in 10.0 mi WNW 12.7 mph - 0.00 in   Overcast
4:51 PM 36.0 °F 27.5 °F 34.0 °F 93% 29.61 in 10.0 mi NW 12.7 mph - N/A   Overcast
5:51 PM 36.0 °F 31.1 °F 35.1 °F 97% 29.64 in 10.0 mi NW 5.8 mph - 0.02 in Rain Light Rain
6:51 PM 36.0 °F 28.5 °F 34.0 °F 93% 29.65 in 10.0 mi NNW 10.4 mph - 0.05 in Rain Light Rain
7:15 PM 36.0 °F 27.5 °F 34.0 °F 93% 29.59 in 10.0 mi NW 12.7 mph - 0.01 in   Overcast
7:39 PM 36.0 °F 28.5 °F 34.0 °F 93% 29.60 in 10.0 mi NW 10.4 mph - 0.01 in Rain Light Rain
7:45 PM 36.0 °F 28.0 °F 34.0 °F 93% 29.60 in 10.0 mi NW 11.5 mph - 0.01 in   Overcast
7:51 PM 37.0 °F 29.3 °F 34.0 °F 89% 29.65 in 10.0 mi NW 11.5 mph - 0.01 in   Overcast
9:43 PM 37.9 °F 30.0 °F 36.0 °F 93% 29.61 in 10.0 mi NNW 12.7 mph - 0.00 in   Overcast
10:28 PM 37.9 °F 29.2 °F 37.0 °F 97% 29.60 in 10.0 mi NNW 15.0 mph - N/A   Overcast
10:51 PM 37.9 °F 30.5 °F 37.0 °F 97% 29.64 in 10.0 mi NNW 11.5 mph - N/A   Overcast
11:51 PM 37.0 °F 28.9 °F 35.1 °F 93% 29.62 in 10.0 mi NNW 12.7 mph - N/A   Overcast